COSMOS 886 DEB, 9823

Orbit data source: Space-Track

COSMOS 886 DEB, 9823 is space debris in LEO originally from a launch on Mon, 27 Dec 1976 UTC launched from the Tyuratam Missile And Space Complex (TTMTR). Debris objects in space refer to the collection of defunct objects orbiting the Earth. Examples of debris include non-operational satellites, rocket bodies, and fragments generated from explosions, collisions, or faulty payload assembly.

Loading next visibility...
Identifier
9823, 1976-126AK
Orbit
LEO
Country
Flag of CISCIS
Related business
Manufacturer
Unknown
Mission
Spacecraft
Bus & Motor
Unknown
Mass
Unknown
Launch date (UTC)
1976-12-27 (49 years ago)
Launch vehicle
Unknown
Launch site
Tyuratam Missile And Space Complex (TTMTR)
Object type
Payload
Rocket body
Debris
Shape & HBR
Unknown shape, 0.1 m
Radar Cross Section
Small (<0.1 m²)

Expand to show TLE details & history
Last TLE update: 1 day ago

TLE from 1 day ago
0 COSMOS 886 DEB
1 09823U 76126AK  26129.29182314  .00000252  00000-0  14808-3 0  9997
2 09823  65.7983 233.4024 0903212  36.4781 329.4435 13.00362907310012
Epoch: 2026-05-09T07:00Z
TLE epoch observation values (Epoch: 2026-05-09T07:00:13.519Z)
Latitude
-0.00001°
Longitude
-98.76529°
Altitude
686.546 km
Speed
7.792 km/s
True Right ascension
15h 33m 36s
True Declination
0° 00' 00"
Sunlit
Object was in full shadow at epoch
Visualization orbit readout
Latitude
Unknown
Longitude
Unknown
Altitude
Unknown
Speed
Unknown
Apparent Right ascension
Unknown
Apparent Declination
Unknown
Sunlit
N/A
Visualization observer readout
Local Sidereal Time
20:32:24
Azimuth
Unknown
Elevation
Unknown
Doppler factor
Unknown
Orbital elements
Apogee altitude
1,949.042 km
Perigee altitude
569.411 km
Semi-major axis
7,637.364 km
Eccentricity
0.09032
Inclination
65.7983°
RAAN
233.4024°
Arg. of periapsis
36.4781°
True anomaly
323.62788°
Mean anomaly
329.4435°
Eccentric anomaly
326.59432°
Mean motion
3.25183 °/min
Orbital period
110.71 mins
BSTAR
0.00014808
Loading maneuver chart data...
Computing Atmospheric mass density...
Loading historical data...
Loading historical data...
Loading historical data...
Loading historical data...
Loading historical data...
Loading historical data...
Loading historical data...

Documentation

Showing up to 5 results
|